Regional Weather Roundup
Issued by NWS

Home | Current Version | Previous Version | Text Only | Print | Product List | Glossary On
Versions: 1 2 3 4 5 6 7 8 9 10 11 12 13 14 15 16 17 18 19 20 21 22 23 24 25 26 27 28 29 30 31 32 33 34 35 36 37 38 39 40 41 42 43 44 45 46 47 48 49 50
000
ASUS45 KBOU 311407
RWRCO

WEATHER ROUNDUP FOR COLORADO
NATIONAL WEATHER SERVICE DENVER/BOULDER CO
800 AM MDT TUE MAR 31 2015

NOTE: "FAIR" INDICATES FEW OR NO CLOUDS BELOW 12000 FEET WITH NO
SIGNIFICANT WEATHER AND/OR OBSTRUCTIONS TO VISIBILITY.

COZ001>005-013-030-031-311500-
...NORTHWEST COLORADO...

CITY           SKY/WX    TMP DP  RH WIND       PRES   REMARKS
CRAIG          SUNNY     30  22  72 SW3       30.15S
HAYDEN         SUNNY     37  18  44 E12       30.15S
MEEKER         SUNNY     36  22  56 CALM      30.16S
MOUNT WERNER   NOT AVBL
STEAMBOAT SPGS SUNNY     31  20  63 CALM      30.18S
WALDEN         SUNNY     28  19  69 CALM      30.21S
$$

COZ006>008-011-311500-
...WEST CENTRAL VALLEYS...

CITY           SKY/WX    TMP DP  RH WIND       PRES   REMARKS
GRAND JUNCTION SUNNY     46  22  38 SE10      30.10R
MONTROSE       SUNNY     43  22  43 S7        30.17R
EAGLE          SUNNY     30  21  69 CALM      30.26S
RIFLE          MOSUNNY   36  22  56 CALM      30.16S
DELTA          SUNNY     45  23  42 CALM      30.16R
NUCLA          SUNNY     43  21  42 E5        30.20R
$$

COZ017>023-064>068-311500-
...SOUTHWEST COLORADO...

CITY           SKY/WX    TMP DP  RH WIND       PRES   REMARKS
DURANGO        SUNNY     36  23  59 CALM      30.21R
CORTEZ         SUNNY     35  22  58 NE3       30.18R
PAGOSA SPRINGS SUNNY     37  22  55 CALM      30.26S
TELLURIDE      NOT AVBL
WOLF CREEK PAS   N/A    N/A N/A N/A SW9       30.45R
$$

COZ009-010-012-014-032>034-037-058>063-311500-
...CENTRAL COLORADO...

CITY           SKY/WX    TMP DP  RH WIND       PRES   REMARKS
ASPEN          SUNNY     38  20  48 S6        30.22S
BUENA VISTA    SUNNY     35  19  52 N3        30.26S
COPPER MTN     SUNNY     36   9  32 W14G24    30.38S
BERTHOUD PASS  FAIR      28  21  74 MISG      30.39R
COTTONWOOD PAS SUNNY     43  10  26 NW5       30.31S
GUNNISON       SUNNY     27  19  74 CALM      30.33S
KREMMLING      MOSUNNY   27  19  74 CALM      30.27S
LEADVILLE      SUNNY     27  12  53 NE6       30.30S WCI  20
SALIDA         SUNNY     38  20  47 CALM      30.34R
SUNLIGHT       SUNNY     37  19  48 CALM      30.36S
WILKERSON PASS SUNNY     36   9  32 W6        30.37S
$$

COZ069>075-311500-
...SAN LUIS VALLEY/SANGRE DE CRISTO MOUNTAINS...

CITY           SKY/WX    TMP DP  RH WIND       PRES   REMARKS
ALAMOSA        MOSUNNY   34  21  59 CALM      30.26R
LA VETA PASS   MOSUNNY   37  14  38 SW5       30.33R
SAGUACHE       NOT AVBL
$$

COZ035-036-038>040-311500-
...NORTHERN COLORADO FRONT RANGE...

CITY           SKY/WX    TMP DP  RH WIND       PRES   REMARKS
DENVER INTL AP SUNNY     47  27  45 S3        30.08S
DMNS CITY PARK   N/A     50  21  32 S6        30.08S
AURORA         SUNNY     49  22  35 S7        30.09S
FRONT RANGE AP SUNNY     46  28  49 S7        30.09S
ERIE MUNI ARPT SUNNY     40  27  58 CALM      30.08R
BOULDER MUN AP SUNNY     48  23  37 CALM      30.07S
CENTENNIAL     SUNNY     47  26  44 SE3       30.10S
BROOMFIELD     NOT AVBL
FORT COLLINS   SUNNY     45  25  45 CALM      30.08S
LONGMONT       SUNNY     44  26  51 W3        30.08F
$$

COZ041-046-047-076>085-087-088-311500-
...PIKES PEAK/PALMER DIVIDE AND SOUTHERN FOOTHILLS...

CITY           SKY/WX    TMP DP  RH WIND       PRES   REMARKS
COLO. SPRINGS  SUNNY     47  24  40 N5        30.15R
A. F. ACADEMY  SUNNY     39  22  50 N7        30.14S
ELLICOTT       SUNNY    N/A N/A N/A NW3       30.13S
FALCON         SUNNY     48  19  31 NW3       30.17S
FORT CARSON    SUNNY     46  22  38 N10       30.12R
LIMON          SUNNY     42  27  55 N5        30.11R
MONUMENT HILL  SUNNY     46  19  34 SW9       30.15S
TRINIDAD       SUNNY     48  22  35 SW15      30.14R
$$

COZ042>045-048>051-090-091-311500-
...NORTHEAST COLORADO...

CITY           SKY/WX    TMP DP  RH WIND       PRES   REMARKS
GREELEY ARPT   SUNNY     37  21  52 CALM      30.06S
AKRON          SUNNY     50  23  34 W12       30.05S
BURLINGTON     SUNNY     49  25  39 SW8       30.07S
WRAY           SUNNY     40  27  59 W3        30.05F
STERLING       SUNNY     34  28  80 SW5       30.04S WCI  30
HOLYOKE        NOT AVBL
FORT MORGAN    SUNNY     39  26  59 W3        30.06F
$$

COZ086-089-092>099-311500-
...SOUTHEAST COLORADO...

CITY           SKY/WX    TMP DP  RH WIND       PRES   REMARKS
PUEBLO         SUNNY     45  26  47 W7        30.10R
LA JUNTA       SUNNY     45  26  47 W9        30.08S
LAMAR          SUNNY     42  28  57 N3        30.07R
SPRINGFIELD      N/A     50  29  44 NW8       30.08S
$$


USA.gov is the U.S. government's official web portal to all federal, state and local government web resources and services.